Year,Month,Day,Hour,Minute,Value (Times are PST for windspeed in km/hr)
2011,07,08,00,00,24.60
2011,07,08,00,01,30.00
2011,07,08,00,02,22.60
2011,07,08,00,03,20.40
2011,07,08,00,04,23.30
2011,07,08,00,05,27.80
2011,07,08,00,06,30.80
2011,07,08,00,07,22.30
2011,07,08,00,08,23.80
2011,07,08,00,09,24.50
2011,07,08,00,10,22.00
2011,07,08,00,11,22.70
2011,07,08,00,12,22.10
2011,07,08,00,13,22.40
2011,07,08,00,14,28.70
2011,07,08,00,15,24.90
2011,07,08,00,16,31.90
2011,07,08,00,17,28.30
2011,07,08,00,18,23.20
2011,07,08,00,19,28.60
2011,07,08,00,20,31.00
2011,07,08,00,21,21.20
2011,07,08,00,22,22.00
2011,07,08,00,23,23.50
2011,07,08,00,24,19.90
2011,07,08,00,25,26.70
2011,07,08,00,26,16.90
2011,07,08,00,27,24.20
2011,07,08,00,28,24.90
2011,07,08,00,29,29.60
2011,07,08,00,30,21.80
2011,07,08,00,31,20.60
2011,07,08,00,32,26.70
2011,07,08,00,33,27.50
2011,07,08,00,34,23.30
2011,07,08,00,35,19.60
2011,07,08,00,36,15.10
2011,07,08,00,37,21.00
2011,07,08,00,38,21.60
2011,07,08,00,39,19.90
2011,07,08,00,40,18.30
2011,07,08,00,41,21.80
2011,07,08,00,42,28.20
2011,07,08,00,43,24.20
2011,07,08,00,44,22.60
2011,07,08,00,45,18.60
2011,07,08,00,46,25.30
2011,07,08,00,47,19.00
2011,07,08,00,48,22.00
2011,07,08,00,49,13.80
2011,07,08,00,50,18.70
2011,07,08,00,51,23.30
2011,07,08,00,52,21.60
2011,07,08,00,53,24.10
2011,07,08,00,54,24.00
2011,07,08,00,55,19.60
2011,07,08,00,56,19.60
2011,07,08,00,57,22.70
2011,07,08,00,58,21.10
2011,07,08,00,59,14.70
2011,07,08,01,00,18.60
2011,07,08,01,01,23.80
2011,07,08,01,02,19.20
2011,07,08,01,03,13.40
2011,07,08,01,04,18.80
2011,07,08,01,05,20.60
2011,07,08,01,06,21.90
2011,07,08,01,07,21.60
2011,07,08,01,08,29.50
2011,07,08,01,09,21.10
2011,07,08,01,10,16.90
2011,07,08,01,11,20.40
2011,07,08,01,12,23.40
2011,07,08,01,13,23.70
2011,07,08,01,14,25.70
2011,07,08,01,15,20.80
2011,07,08,01,16,24.90
2011,07,08,01,17,17.00
2011,07,08,01,18,15.80
2011,07,08,01,19,26.00
2011,07,08,01,20,22.90
2011,07,08,01,21,22.00
2011,07,08,01,22,16.00
2011,07,08,01,23,23.80
2011,07,08,01,24,25.80
2011,07,08,01,25,24.00
2011,07,08,01,26,19.50
2011,07,08,01,27,17.10
2011,07,08,01,28,14.60
2011,07,08,01,29,16.70
2011,07,08,01,30,17.50
2011,07,08,01,31,22.50
2011,07,08,01,32,19.10
2011,07,08,01,33,17.30
2011,07,08,01,34,28.00
2011,07,08,01,35,28.20
2011,07,08,01,36,21.90
2011,07,08,01,37,18.70
2011,07,08,01,38,26.40
2011,07,08,01,39,17.60
2011,07,08,01,40,25.50
2011,07,08,01,41,18.50
2011,07,08,01,42,17.00
2011,07,08,01,43,22.70
2011,07,08,01,44,16.90
2011,07,08,01,45,19.10
2011,07,08,01,46,22.90
2011,07,08,01,47,22.50
2011,07,08,01,48,22.60
2011,07,08,01,49,14.00
2011,07,08,01,50,16.80
2011,07,08,01,51,22.50
2011,07,08,01,52,23.30
2011,07,08,01,53,23.30
2011,07,08,01,54,19.90
2011,07,08,01,55,21.00
2011,07,08,01,56,20.90
2011,07,08,01,57,27.30
2011,07,08,01,58,19.80
2011,07,08,01,59,19.60
2011,07,08,02,00,17.90
2011,07,08,02,01,18.80
2011,07,08,02,02,11.00
2011,07,08,02,03,14.20
2011,07,08,02,04,19.40
2011,07,08,02,05,26.00
2011,07,08,02,06,20.80
2011,07,08,02,07,22.00
2011,07,08,02,08,21.80
2011,07,08,02,09,20.80
2011,07,08,02,10,20.00
2011,07,08,02,11,15.60
2011,07,08,02,12,17.40
2011,07,08,02,13,18.90
2011,07,08,02,14,18.30
2011,07,08,02,15,17.90
2011,07,08,02,16,20.10
2011,07,08,02,17,15.90
2011,07,08,02,18,19.50
2011,07,08,02,19,16.70
2011,07,08,02,20,16.10
2011,07,08,02,21,16.70
2011,07,08,02,22,23.30
2011,07,08,02,23,15.90
2011,07,08,02,24,13.00
2011,07,08,02,25,11.40
2011,07,08,02,26,11.50
2011,07,08,02,27,23.00
2011,07,08,02,28,22.00
2011,07,08,02,29,21.70
2011,07,08,02,30,12.60
2011,07,08,02,31,16.90
2011,07,08,02,32,14.50
2011,07,08,02,33,18.10
2011,07,08,02,34,15.80
2011,07,08,02,35,25.50
2011,07,08,02,36,22.90
2011,07,08,02,37,18.50
2011,07,08,02,38,18.80
2011,07,08,02,39,19.20
2011,07,08,02,40,22.50
2011,07,08,02,41,20.60
2011,07,08,02,42,12.40
2011,07,08,02,43,14.20
2011,07,08,02,44,8.70
2011,07,08,02,45,9.90
2011,07,08,02,46,12.40
2011,07,08,02,47,11.40
2011,07,08,02,48,12.10
2011,07,08,02,49,15.00
2011,07,08,02,50,17.10
2011,07,08,02,51,17.10
2011,07,08,02,52,18.20
2011,07,08,02,53,21.50
2011,07,08,02,54,20.80
2011,07,08,02,55,13.40
2011,07,08,02,56,18.20
2011,07,08,02,57,16.00
2011,07,08,02,58,19.40
2011,07,08,02,59,16.90
2011,07,08,03,00,19.00
2011,07,08,03,01,20.90
2011,07,08,03,02,17.60
2011,07,08,03,03,15.10
2011,07,08,03,04,22.00
2011,07,08,03,05,20.60
2011,07,08,03,06,12.50
2011,07,08,03,07,14.60
2011,07,08,03,08,22.20
2011,07,08,03,09,20.50
2011,07,08,03,10,19.50
2011,07,08,03,11,17.90
2011,07,08,03,12,15.60
2011,07,08,03,13,17.90
2011,07,08,03,14,18.80
2011,07,08,03,15,10.40
2011,07,08,03,16,9.70
2011,07,08,03,17,15.20
2011,07,08,03,18,16.10
2011,07,08,03,19,17.50
2011,07,08,03,20,18.60
2011,07,08,03,21,18.10
2011,07,08,03,22,18.70
2011,07,08,03,23,16.30
2011,07,08,03,24,24.20
2011,07,08,03,25,17.40
2011,07,08,03,26,12.50
2011,07,08,03,27,22.90
2011,07,08,03,28,17.30
2011,07,08,03,29,19.10
2011,07,08,03,30,20.50
2011,07,08,03,31,20.80
2011,07,08,03,32,14.20
2011,07,08,03,33,12.30
2011,07,08,03,34,13.10
2011,07,08,03,35,23.70
2011,07,08,03,36,17.60
2011,07,08,03,37,15.00
2011,07,08,03,38,16.60
2011,07,08,03,39,17.00
2011,07,08,03,40,16.70
2011,07,08,03,41,20.70
2011,07,08,03,42,20.20
2011,07,08,03,43,15.90
2011,07,08,03,44,19.80
2011,07,08,03,45,15.70
2011,07,08,03,46,13.70
2011,07,08,03,47,23.70
2011,07,08,03,48,20.40
2011,07,08,03,49,18.90
2011,07,08,03,50,17.90
2011,07,08,03,51,22.00
2011,07,08,03,52,26.60
2011,07,08,03,53,25.00
2011,07,08,03,54,17.20
2011,07,08,03,55,21.40
2011,07,08,03,56,27.00
2011,07,08,03,57,18.00
2011,07,08,03,58,18.90
2011,07,08,03,59,16.80
2011,07,08,04,00,21.70
2011,07,08,04,01,20.00
2011,07,08,04,02,15.10
2011,07,08,04,03,14.50
2011,07,08,04,04,22.40
2011,07,08,04,05,22.80
2011,07,08,04,06,20.10
2011,07,08,04,07,19.60
2011,07,08,04,08,20.10
2011,07,08,04,09,16.60
2011,07,08,04,10,20.00
2011,07,08,04,11,15.00
2011,07,08,04,12,17.80
2011,07,08,04,13,20.40
2011,07,08,04,14,22.10
2011,07,08,04,15,21.50
2011,07,08,04,16,20.10
2011,07,08,04,17,16.60
2011,07,08,04,18,20.70
2011,07,08,04,19,17.40
2011,07,08,04,20,21.00
2011,07,08,04,21,14.00
2011,07,08,04,22,22.60
2011,07,08,04,23,14.20
2011,07,08,04,24,18.90
2011,07,08,04,25,13.00
2011,07,08,04,26,11.50
2011,07,08,04,27,19.30
2011,07,08,04,28,23.40
2011,07,08,04,29,22.90
2011,07,08,04,30,18.60
2011,07,08,04,31,21.40
2011,07,08,04,32,13.20
2011,07,08,04,33,18.20
2011,07,08,04,34,16.30
2011,07,08,04,35,12.40
2011,07,08,04,36,12.20
2011,07,08,04,37,8.80
2011,07,08,04,38,20.20
2011,07,08,04,39,15.50
2011,07,08,04,40,9.20
2011,07,08,04,41,7.50
2011,07,08,04,42,14.10
2011,07,08,04,43,16.20
2011,07,08,04,44,13.40
2011,07,08,04,45,9.10
2011,07,08,04,46,12.00
2011,07,08,04,47,17.70
2011,07,08,04,48,14.20
2011,07,08,04,49,10.50
2011,07,08,04,50,17.30
2011,07,08,04,51,10.90
2011,07,08,04,52,16.10
2011,07,08,04,53,12.50
2011,07,08,04,54,12.10
2011,07,08,04,55,14.20
2011,07,08,04,56,13.70
2011,07,08,04,57,15.90
2011,07,08,04,58,18.70
2011,07,08,04,59,11.60
2011,07,08,05,00,7.60
2011,07,08,05,01,7.70
2011,07,08,05,02,8.10
2011,07,08,05,03,9.50
2011,07,08,05,04,8.60
2011,07,08,05,05,7.50
2011,07,08,05,06,7.90
2011,07,08,05,07,7.20
2011,07,08,05,08,7.30
2011,07,08,05,09,8.90
2011,07,08,05,10,11.90
2011,07,08,05,11,9.10
2011,07,08,05,12,4.30
2011,07,08,05,13,9.10
2011,07,08,05,14,8.00
2011,07,08,05,15,6.40
2011,07,08,05,16,6.60
2011,07,08,05,17,5.60
2011,07,08,05,18,5.50
2011,07,08,05,19,7.30
2011,07,08,05,20,4.20
2011,07,08,05,21,4.90
2011,07,08,05,22,6.40
2011,07,08,05,23,5.70
2011,07,08,05,24,5.60
2011,07,08,05,25,5.40
2011,07,08,05,26,8.40
2011,07,08,05,27,5.90
2011,07,08,05,28,6.10
2011,07,08,05,29,7.40
2011,07,08,05,30,9.10
2011,07,08,05,31,6.90
2011,07,08,05,32,6.90
2011,07,08,05,33,7.00
2011,07,08,05,34,6.50
2011,07,08,05,35,9.20
2011,07,08,05,36,8.60
2011,07,08,05,37,6.70
2011,07,08,05,38,5.90
2011,07,08,05,39,5.60
2011,07,08,05,40,5.20
2011,07,08,05,41,5.60
2011,07,08,05,42,4.80
2011,07,08,05,43,3.10
2011,07,08,05,44,1.30
2011,07,08,05,45,4.30
2011,07,08,05,46,4.60
2011,07,08,05,47,6.70
2011,07,08,05,48,6.80
2011,07,08,05,49,6.20
2011,07,08,05,50,4.90
2011,07,08,05,51,6.70
2011,07,08,05,52,5.00
2011,07,08,05,53,6.80
2011,07,08,05,54,7.30
2011,07,08,05,55,5.10
2011,07,08,05,56,5.90
2011,07,08,05,57,2.70
2011,07,08,05,58,4.80
2011,07,08,05,59,7.80
2011,07,08,06,00,6.30
2011,07,08,06,01,4.10
2011,07,08,06,02,2.70
2011,07,08,06,03,3.60
2011,07,08,06,04,5.60
2011,07,08,06,05,5.50
2011,07,08,06,06,4.40
2011,07,08,06,07,6.50
2011,07,08,06,08,7.90
2011,07,08,06,09,9.60
2011,07,08,06,10,6.40
2011,07,08,06,11,6.30
2011,07,08,06,12,7.90
2011,07,08,06,13,4.90
2011,07,08,06,14,7.90
2011,07,08,06,15,6.00
2011,07,08,06,16,7.00
2011,07,08,06,17,7.30
2011,07,08,06,18,6.10
2011,07,08,06,19,6.20
2011,07,08,06,20,5.40
2011,07,08,06,21,8.10
2011,07,08,06,22,9.00
2011,07,08,06,23,8.20
2011,07,08,06,24,14.70
2011,07,08,06,25,11.80
2011,07,08,06,26,10.50
2011,07,08,06,27,12.10
2011,07,08,06,28,8.60
2011,07,08,06,29,6.20
2011,07,08,06,30,13.20
2011,07,08,06,31,9.10
2011,07,08,06,32,6.30
2011,07,08,06,33,6.40
2011,07,08,06,34,6.40
2011,07,08,06,35,5.80
2011,07,08,06,36,7.90
2011,07,08,06,37,4.50
2011,07,08,06,38,3.70
2011,07,08,06,39,6.00
2011,07,08,06,40,4.00
2011,07,08,06,41,3.10
2011,07,08,06,42,1.80
2011,07,08,06,43,4.50
2011,07,08,06,44,2.40
2011,07,08,06,45,7.20
2011,07,08,06,46,7.90
2011,07,08,06,47,5.40
2011,07,08,06,48,5.30
2011,07,08,06,49,4.80
2011,07,08,06,50,9.80
2011,07,08,06,51,6.60
2011,07,08,06,52,8.90
2011,07,08,06,53,7.20
2011,07,08,06,54,4.50
2011,07,08,06,55,6.40
2011,07,08,06,56,1.80
2011,07,08,06,57,4.30
2011,07,08,06,58,0.60
2011,07,08,06,59,0.80
2011,07,08,07,00,5.50
2011,07,08,07,01,6.50
2011,07,08,07,02,3.70
2011,07,08,07,03,1.80
2011,07,08,07,04,5.30
2011,07,08,07,05,2.90
2011,07,08,07,06,5.10
2011,07,08,07,07,4.90
2011,07,08,07,08,4.60
2011,07,08,07,09,4.50
2011,07,08,07,10,1.50
2011,07,08,07,11,2.90
2011,07,08,07,12,5.90
2011,07,08,07,13,4.80
2011,07,08,07,14,6.80
2011,07,08,07,15,9.60
2011,07,08,07,16,10.30
2011,07,08,07,17,6.80
2011,07,08,07,18,5.10
2011,07,08,07,19,8.70
2011,07,08,07,20,5.00
2011,07,08,07,21,2.20
2011,07,08,07,22,0.80
2011,07,08,07,23,2.70
2011,07,08,07,24,8.60
2011,07,08,07,25,7.70
2011,07,08,07,26,8.40
2011,07,08,07,27,11.40
2011,07,08,07,28,12.00
2011,07,08,07,29,6.00
2011,07,08,07,30,6.00
2011,07,08,07,31,6.50
2011,07,08,07,32,6.30
2011,07,08,07,33,5.50
2011,07,08,07,34,9.30
2011,07,08,07,35,6.80
2011,07,08,07,36,2.50
2011,07,08,07,37,6.10
2011,07,08,07,38,3.90
2011,07,08,07,39,4.90
2011,07,08,07,40,1.90
2011,07,08,07,41,0.50
2011,07,08,07,42,1.50
2011,07,08,07,43,2.10
2011,07,08,07,44,0.00
2011,07,08,07,45,0.10
2011,07,08,07,46,3.10
2011,07,08,07,47,2.60
2011,07,08,07,48,5.50
2011,07,08,07,49,3.40
2011,07,08,07,50,1.60
2011,07,08,07,51,1.30
2011,07,08,07,52,4.20
2011,07,08,07,53,4.00
2011,07,08,07,54,3.90
2011,07,08,07,55,1.20
2011,07,08,07,56,0.50
2011,07,08,07,57,0.20
2011,07,08,07,58,1.50
2011,07,08,07,59,5.10
2011,07,08,08,00,5.60
2011,07,08,08,01,2.30
2011,07,08,08,02,4.00
2011,07,08,08,03,2.30
2011,07,08,08,04,4.40
2011,07,08,08,05,6.20
2011,07,08,08,06,7.40
2011,07,08,08,07,9.00
2011,07,08,08,08,5.70
2011,07,08,08,09,6.50
2011,07,08,08,10,9.60
2011,07,08,08,11,5.10
2011,07,08,08,12,7.50
2011,07,08,08,13,7.50
2011,07,08,08,14,9.50
2011,07,08,08,15,7.60
2011,07,08,08,16,6.60
2011,07,08,08,17,4.80
2011,07,08,08,18,6.40
2011,07,08,08,19,10.30
2011,07,08,08,20,7.00
2011,07,08,08,21,4.10
2011,07,08,08,22,4.30
2011,07,08,08,23,4.40
2011,07,08,08,24,6.80
2011,07,08,08,25,3.10
2011,07,08,08,26,4.30
2011,07,08,08,27,4.80
2011,07,08,08,28,4.50
2011,07,08,08,29,10.90
2011,07,08,08,30,5.00
2011,07,08,08,31,6.60
2011,07,08,08,32,5.70
2011,07,08,08,33,7.60
2011,07,08,08,34,11.70
2011,07,08,08,35,6.20
2011,07,08,08,36,8.00
2011,07,08,08,37,7.70
2011,07,08,08,38,6.90
2011,07,08,08,39,4.10
2011,07,08,08,40,3.10
2011,07,08,08,41,2.20
2011,07,08,08,42,2.90
2011,07,08,08,43,0.10
2011,07,08,08,44,2.70
2011,07,08,08,45,11.10
2011,07,08,08,46,4.70
2011,07,08,08,47,5.10
2011,07,08,08,48,5.50
2011,07,08,08,49,5.10
2011,07,08,08,50,5.80
2011,07,08,08,51,7.60
2011,07,08,08,52,4.30
2011,07,08,08,53,2.20
2011,07,08,08,54,0.00
2011,07,08,08,55,0.00
2011,07,08,08,56,4.80
2011,07,08,08,57,6.80
2011,07,08,08,58,7.20
2011,07,08,08,59,3.40
2011,07,08,09,00,7.20
2011,07,08,09,01,3.50
2011,07,08,09,02,6.00
2011,07,08,09,03,8.80
2011,07,08,09,04,5.90
2011,07,08,09,05,5.20
2011,07,08,09,06,4.70
2011,07,08,09,07,3.10
2011,07,08,09,08,4.20
2011,07,08,09,09,5.10
2011,07,08,09,10,2.50
2011,07,08,09,11,2.20
2011,07,08,09,12,5.80
2011,07,08,09,13,4.30
2011,07,08,09,14,1.90
2011,07,08,09,15,0.40
2011,07,08,09,16,4.00
2011,07,08,09,17,3.10
2011,07,08,09,18,4.20
2011,07,08,09,19,1.90
2011,07,08,09,20,3.10
2011,07,08,09,21,1.60
2011,07,08,09,22,0.80
2011,07,08,09,23,0.90
2011,07,08,09,24,3.60
2011,07,08,09,25,7.30
2011,07,08,09,26,7.60
2011,07,08,09,27,3.10
2011,07,08,09,28,2.50
2011,07,08,09,29,3.50
2011,07,08,09,30,4.10
2011,07,08,09,31,5.20
2011,07,08,09,32,5.30
2011,07,08,09,33,5.60
2011,07,08,09,34,4.80
2011,07,08,09,35,3.10
2011,07,08,09,36,4.20
2011,07,08,09,37,2.60
2011,07,08,09,38,3.00
2011,07,08,09,39,3.90
2011,07,08,09,40,1.70
2011,07,08,09,41,1.50
2011,07,08,09,42,0.90
2011,07,08,09,43,3.10
2011,07,08,09,44,2.40
2011,07,08,09,45,0.20
2011,07,08,09,46,0.10
2011,07,08,09,47,1.30
2011,07,08,09,48,3.00
2011,07,08,09,49,4.40
2011,07,08,09,50,4.30
2011,07,08,09,51,1.50
2011,07,08,09,52,0.80
2011,07,08,09,53,0.40
2011,07,08,09,54,0.50
2011,07,08,09,55,3.80
2011,07,08,09,56,1.50
2011,07,08,09,57,3.50
2011,07,08,09,58,3.90
2011,07,08,09,59,2.60
2011,07,08,10,00,2.30
2011,07,08,10,01,4.70
2011,07,08,10,02,2.20
2011,07,08,10,03,3.10
2011,07,08,10,04,2.20
2011,07,08,10,05,4.00
2011,07,08,10,06,5.10
2011,07,08,10,07,4.70
2011,07,08,10,08,3.80
2011,07,08,10,09,4.10
2011,07,08,10,10,1.00
2011,07,08,10,11,3.50
2011,07,08,10,12,4.60
2011,07,08,10,13,2.20
2011,07,08,10,14,1.10
2011,07,08,10,15,3.10
2011,07,08,10,16,4.20
2011,07,08,10,17,0.40
2011,07,08,10,18,5.00
2011,07,08,10,19,3.90
2011,07,08,10,20,5.90
2011,07,08,10,21,4.60
2011,07,08,10,22,8.40
2011,07,08,10,23,7.10
2011,07,08,10,24,5.90
2011,07,08,10,25,4.60
2011,07,08,10,26,3.60
2011,07,08,10,27,5.30
2011,07,08,10,28,3.40
2011,07,08,10,29,5.50
2011,07,08,10,30,3.60
2011,07,08,10,31,4.30
2011,07,08,10,32,2.20
2011,07,08,10,33,4.40
2011,07,08,10,34,6.50
2011,07,08,10,35,6.40
2011,07,08,10,36,7.90
2011,07,08,10,37,8.70
2011,07,08,10,38,7.20
2011,07,08,10,39,6.00
2011,07,08,10,40,6.10
2011,07,08,10,41,3.90
2011,07,08,10,42,4.00
2011,07,08,10,43,5.30
2011,07,08,10,44,2.50
2011,07,08,10,45,5.40
2011,07,08,10,46,2.30
2011,07,08,10,47,3.90
2011,07,08,10,48,5.10
2011,07,08,10,49,2.80
2011,07,08,10,50,0.20
2011,07,08,10,51,0.40
2011,07,08,10,52,6.00
2011,07,08,10,53,4.70
2011,07,08,10,54,5.20
2011,07,08,10,55,6.40
2011,07,08,10,56,8.00
2011,07,08,10,57,6.70
2011,07,08,10,58,4.80
2011,07,08,10,59,5.30
2011,07,08,11,00,8.00
2011,07,08,11,01,5.00
2011,07,08,11,02,5.40
2011,07,08,11,03,6.60
2011,07,08,11,04,6.50
2011,07,08,11,05,6.00
2011,07,08,11,06,5.50
2011,07,08,11,07,4.60
2011,07,08,11,08,5.20
2011,07,08,11,09,7.20
2011,07,08,11,10,8.60
2011,07,08,11,11,9.90
2011,07,08,11,12,7.70
2011,07,08,11,13,6.80
2011,07,08,11,14,7.00
2011,07,08,11,15,5.80
2011,07,08,11,16,6.10
2011,07,08,11,17,6.80
2011,07,08,11,18,6.40
2011,07,08,11,19,4.10
2011,07,08,11,20,7.10
2011,07,08,11,21,6.80
2011,07,08,11,22,9.00
2011,07,08,11,23,7.60
2011,07,08,11,24,8.30
2011,07,08,11,25,7.10
2011,07,08,11,26,6.80
2011,07,08,11,27,6.70
2011,07,08,11,28,5.70
2011,07,08,11,29,6.30
2011,07,08,11,30,5.40
2011,07,08,11,31,7.20
2011,07,08,11,32,6.80
2011,07,08,11,33,4.30
2011,07,08,11,34,5.10
2011,07,08,11,35,3.40
2011,07,08,11,36,7.60
2011,07,08,11,37,6.80
2011,07,08,11,38,5.80
2011,07,08,11,39,5.60
2011,07,08,11,40,5.60
2011,07,08,11,41,5.50
2011,07,08,11,42,4.80
2011,07,08,11,43,7.70
2011,07,08,11,44,8.00
2011,07,08,11,45,7.90
2011,07,08,11,46,7.10
2011,07,08,11,47,7.10
2011,07,08,11,48,7.00
2011,07,08,11,49,4.90
2011,07,08,11,50,6.60
2011,07,08,11,51,6.00
2011,07,08,11,52,6.10
2011,07,08,11,53,5.80
2011,07,08,11,54,7.00
2011,07,08,11,55,5.40
2011,07,08,11,56,2.40
2011,07,08,11,57,3.90
2011,07,08,11,58,6.20
2011,07,08,11,59,6.20
2011,07,08,12,00,3.20
2011,07,08,12,01,4.50
2011,07,08,12,02,4.10
2011,07,08,12,03,2.00
2011,07,08,12,04,2.30
2011,07,08,12,05,1.80
2011,07,08,12,06,3.30
2011,07,08,12,07,2.60
2011,07,08,12,08,4.20
2011,07,08,12,09,5.50
2011,07,08,12,10,5.20
2011,07,08,12,11,8.40
2011,07,08,12,12,7.20
2011,07,08,12,13,7.80
2011,07,08,12,14,5.00
2011,07,08,12,15,3.10
2011,07,08,12,16,5.80
2011,07,08,12,17,5.00
2011,07,08,12,18,2.40
2011,07,08,12,19,2.40
2011,07,08,12,20,4.80
2011,07,08,12,21,1.60
2011,07,08,12,22,1.50
2011,07,08,12,23,2.30
2011,07,08,12,24,2.80
2011,07,08,12,25,2.10
2011,07,08,12,26,2.60
2011,07,08,12,27,0.90
2011,07,08,12,28,2.50
2011,07,08,12,29,1.10
2011,07,08,12,30,2.30
2011,07,08,12,31,3.40
2011,07,08,12,32,3.40
2011,07,08,12,33,2.20
2011,07,08,12,34,2.40
2011,07,08,12,35,2.70
2011,07,08,12,36,1.40
2011,07,08,12,37,2.70
2011,07,08,12,38,1.70
2011,07,08,12,39,2.30
2011,07,08,12,40,5.10
2011,07,08,12,41,5.10
2011,07,08,12,42,3.40
2011,07,08,12,43,3.90
2011,07,08,12,44,5.10
2011,07,08,12,45,4.10
2011,07,08,12,46,5.20
2011,07,08,12,47,5.40
2011,07,08,12,48,5.80
2011,07,08,12,49,6.90
2011,07,08,12,50,7.30
2011,07,08,12,51,6.20
2011,07,08,12,52,6.40
2011,07,08,12,53,7.00
2011,07,08,12,54,6.50
2011,07,08,12,55,3.10
2011,07,08,12,56,4.70
2011,07,08,12,57,7.20
2011,07,08,12,58,6.00
2011,07,08,12,59,7.60
2011,07,08,13,00,6.20
2011,07,08,13,01,7.70
2011,07,08,13,02,8.40
2011,07,08,13,03,5.20
2011,07,08,13,04,5.30
2011,07,08,13,05,5.30
2011,07,08,13,06,5.90
2011,07,08,13,07,5.60
2011,07,08,13,08,6.40
2011,07,08,13,09,6.00
2011,07,08,13,10,7.50
2011,07,08,13,11,5.50
2011,07,08,13,12,5.00
2011,07,08,13,13,5.80
2011,07,08,13,14,4.30
2011,07,08,13,15,3.60
2011,07,08,13,16,4.50
2011,07,08,13,17,5.20
2011,07,08,13,18,5.30
2011,07,08,13,19,3.40
2011,07,08,13,20,4.40
2011,07,08,13,21,4.10
2011,07,08,13,22,6.00
2011,07,08,13,23,5.20
2011,07,08,13,24,6.50
2011,07,08,13,25,6.10
2011,07,08,13,26,5.50
2011,07,08,13,27,4.00
2011,07,08,13,28,4.70
2011,07,08,13,29,4.80
2011,07,08,13,30,3.50
2011,07,08,13,31,5.50
2011,07,08,13,32,6.50
2011,07,08,13,33,7.10
2011,07,08,13,34,7.00
2011,07,08,13,35,6.70
2011,07,08,13,36,7.90
2011,07,08,13,37,8.30
2011,07,08,13,38,6.40
2011,07,08,13,39,6.60
2011,07,08,13,40,7.60
2011,07,08,13,41,11.30
2011,07,08,13,42,9.80
2011,07,08,13,43,8.60
2011,07,08,13,44,6.20
2011,07,08,13,45,8.00
2011,07,08,13,46,6.40
2011,07,08,13,47,7.60
2011,07,08,13,48,6.20
2011,07,08,13,49,4.30
2011,07,08,13,50,6.40
2011,07,08,13,51,3.20
2011,07,08,13,52,6.80
2011,07,08,13,53,7.50
2011,07,08,13,54,6.10
2011,07,08,13,55,3.10
2011,07,08,13,56,4.60
2011,07,08,13,57,5.90
2011,07,08,13,58,5.30
2011,07,08,13,59,6.10
2011,07,08,14,00,4.70
2011,07,08,14,01,7.20
2011,07,08,14,02,11.00
2011,07,08,14,03,11.20
2011,07,08,14,04,12.20
2011,07,08,14,05,8.70
2011,07,08,14,06,7.70
2011,07,08,14,07,8.00
2011,07,08,14,08,9.40
2011,07,08,14,09,8.60
2011,07,08,14,10,6.90
2011,07,08,14,11,10.60
2011,07,08,14,12,5.30
2011,07,08,14,13,7.30
2011,07,08,14,14,7.00
2011,07,08,14,15,8.10
2011,07,08,14,16,7.80
2011,07,08,14,17,6.80
2011,07,08,14,18,7.00
2011,07,08,14,19,7.40
2011,07,08,14,20,6.80
2011,07,08,14,21,7.20
2011,07,08,14,22,9.20
2011,07,08,14,23,8.70
2011,07,08,14,24,9.70
2011,07,08,14,25,7.00
2011,07,08,14,26,5.40
2011,07,08,14,27,6.00
2011,07,08,14,28,9.90
2011,07,08,14,29,11.00
2011,07,08,14,30,11.90
2011,07,08,14,31,8.40
2011,07,08,14,32,7.00
2011,07,08,14,33,8.40
2011,07,08,14,34,10.60
2011,07,08,14,35,9.30
2011,07,08,14,36,9.40
2011,07,08,14,37,10.10
2011,07,08,14,38,8.60
2011,07,08,14,39,8.00
2011,07,08,14,40,6.60
2011,07,08,14,41,9.30
2011,07,08,14,42,8.90
2011,07,08,14,43,10.00
2011,07,08,14,44,8.50
2011,07,08,14,45,8.50
2011,07,08,14,46,9.10
2011,07,08,14,47,9.60
2011,07,08,14,48,7.10
2011,07,08,14,49,5.30
2011,07,08,14,50,8.00
2011,07,08,14,51,9.00
2011,07,08,14,52,7.70
2011,07,08,14,53,8.40
2011,07,08,14,54,8.10
2011,07,08,14,55,7.20
2011,07,08,14,56,7.00
2011,07,08,14,57,9.70
2011,07,08,14,58,8.90
2011,07,08,14,59,7.70
2011,07,08,15,00,8.20
2011,07,08,15,01,6.00
2011,07,08,15,02,8.10
2011,07,08,15,03,7.20
2011,07,08,15,04,7.10
2011,07,08,15,05,7.30
2011,07,08,15,06,8.10
2011,07,08,15,07,7.40
2011,07,08,15,08,7.00
2011,07,08,15,09,8.90
2011,07,08,15,10,7.60
2011,07,08,15,11,9.30
2011,07,08,15,12,8.40
2011,07,08,15,13,5.70
2011,07,08,15,14,6.80
2011,07,08,15,15,5.50
2011,07,08,15,16,7.70
2011,07,08,15,17,8.90
2011,07,08,15,18,8.50
2011,07,08,15,19,8.40
2011,07,08,15,20,9.10
2011,07,08,15,21,8.90
2011,07,08,15,22,9.00
2011,07,08,15,23,10.40
2011,07,08,15,24,10.90
2011,07,08,15,25,10.90
2011,07,08,15,26,12.20
2011,07,08,15,27,8.90
2011,07,08,15,28,9.40
2011,07,08,15,29,10.70
2011,07,08,15,30,10.30
2011,07,08,15,31,6.10
2011,07,08,15,32,4.90
2011,07,08,15,33,7.60
2011,07,08,15,34,5.40
2011,07,08,15,35,6.80
2011,07,08,15,36,6.10
2011,07,08,15,37,4.80
2011,07,08,15,38,2.60
2011,07,08,15,39,7.60
2011,07,08,15,40,5.80
2011,07,08,15,41,6.40
2011,07,08,15,42,3.70
2011,07,08,15,43,6.50
2011,07,08,15,44,8.40
2011,07,08,15,45,7.90
2011,07,08,15,46,9.60
2011,07,08,15,47,8.30
2011,07,08,15,48,8.50
2011,07,08,15,49,6.90
2011,07,08,15,50,8.10
2011,07,08,15,51,6.80
2011,07,08,15,52,6.50
2011,07,08,15,53,7.50
2011,07,08,15,54,7.30
2011,07,08,15,55,6.40
2011,07,08,15,56,8.60
2011,07,08,15,57,5.30
2011,07,08,15,58,5.50
2011,07,08,15,59,5.80
2011,07,08,16,00,4.40
2011,07,08,16,01,7.20
2011,07,08,16,02,6.80
2011,07,08,16,03,10.80
2011,07,08,16,04,6.10
2011,07,08,16,05,6.10
2011,07,08,16,06,7.50
2011,07,08,16,07,10.10
2011,07,08,16,08,10.30
2011,07,08,16,09,8.10
2011,07,08,16,10,7.50
2011,07,08,16,11,12.30
2011,07,08,16,12,11.40
2011,07,08,16,13,10.60
2011,07,08,16,14,9.10
2011,07,08,16,15,9.80
2011,07,08,16,16,10.60
2011,07,08,16,17,7.40
2011,07,08,16,18,8.80
2011,07,08,16,19,5.60
2011,07,08,16,20,7.80
2011,07,08,16,21,7.20
2011,07,08,16,22,7.90
2011,07,08,16,23,9.20
2011,07,08,16,24,6.70
2011,07,08,16,25,7.70
2011,07,08,16,26,6.80
2011,07,08,16,27,6.50
2011,07,08,16,28,6.80
2011,07,08,16,29,7.20
2011,07,08,16,30,5.90
2011,07,08,16,31,7.30
2011,07,08,16,32,7.20
2011,07,08,16,33,5.10
2011,07,08,16,34,8.00
2011,07,08,16,35,6.00
2011,07,08,16,36,5.20
2011,07,08,16,37,5.20
2011,07,08,16,38,6.40
2011,07,08,16,39,4.30
2011,07,08,16,40,6.40
2011,07,08,16,41,6.30
2011,07,08,16,42,6.20
2011,07,08,16,43,6.30
2011,07,08,16,44,5.70
2011,07,08,16,45,7.60
2011,07,08,16,46,6.80
2011,07,08,16,47,6.00
2011,07,08,16,48,10.70
2011,07,08,16,49,5.10
2011,07,08,16,50,7.70
2011,07,08,16,51,5.90
2011,07,08,16,52,4.40
2011,07,08,16,53,5.80
2011,07,08,16,54,5.40
2011,07,08,16,55,7.70
2011,07,08,16,56,9.70
2011,07,08,16,57,6.40
2011,07,08,16,58,7.10
2011,07,08,16,59,8.30
2011,07,08,17,00,8.10
2011,07,08,17,01,8.30
2011,07,08,17,02,10.70
2011,07,08,17,03,11.30
2011,07,08,17,04,12.40
2011,07,08,17,05,13.20
2011,07,08,17,06,11.00
2011,07,08,17,07,11.10
2011,07,08,17,08,9.70
2011,07,08,17,09,8.50
2011,07,08,17,10,6.20
2011,07,08,17,11,7.90
2011,07,08,17,12,7.20
2011,07,08,17,13,8.20
2011,07,08,17,14,10.40
2011,07,08,17,15,8.80
2011,07,08,17,16,7.00
2011,07,08,17,17,10.10
2011,07,08,17,18,7.40
2011,07,08,17,19,8.10
2011,07,08,17,20,8.40
2011,07,08,17,21,6.60
2011,07,08,17,22,6.80
2011,07,08,17,23,8.10
2011,07,08,17,24,8.10
2011,07,08,17,25,6.20
2011,07,08,17,26,9.30
2011,07,08,17,27,11.30
2011,07,08,17,28,10.30
2011,07,08,17,29,7.50
2011,07,08,17,30,9.70
2011,07,08,17,31,12.10
2011,07,08,17,32,11.50
2011,07,08,17,33,8.10
2011,07,08,17,34,6.70
2011,07,08,17,35,10.40
2011,07,08,17,36,6.80
2011,07,08,17,37,8.00
2011,07,08,17,38,10.30
2011,07,08,17,39,11.00
2011,07,08,17,40,9.70
2011,07,08,17,41,9.00
2011,07,08,17,42,5.70
2011,07,08,17,43,8.20
2011,07,08,17,44,8.90
2011,07,08,17,45,9.00
2011,07,08,17,46,8.30
2011,07,08,17,47,6.40
2011,07,08,17,48,6.70
2011,07,08,17,49,9.70
2011,07,08,17,50,9.10